• In Portugal
  • List of Countries
  • For 7 days
  • Water Temperature
  • Satellite Maps
  • Weather Map
  • Weather Widgets
  • user-avatar
    Login

    Hourly Weather Salta

    Today, 21 September, Friday

    Time Temperature Precipitation Wind Pressure Humidity
    00:00 +20°C° 0 mm 1 mps 650 mmHg 72%
    01:00 +20°C° 0 mm 1 mps 650 mmHg 72%
    02:00 +19°C° 0 mm 1 mps 650 mmHg 76%
    03:00 +19°C° 0 mm 1 mps 649 mmHg 74%
    04:00 +19°C° 0 mm 1 mps 649 mmHg 72%
    05:00 +18°C° 0 mm 1 mps 649 mmHg 70%
    06:00 +20°C° 0 mm 1 mps 650 mmHg 64%
    07:00 +21°C° 0 mm 1 mps 651 mmHg 58%
    08:00 +23°C° 0 mm 1 mps 652 mmHg 50%
    09:00 +24°C° 0 mm 1 mps 652 mmHg 46%
    10:00 +26°C° 0 mm 2 mps 652 mmHg 42%
    11:00 +28°C° 0 mm 2 mps 652 mmHg 38%
    12:00 +29°C° 0 mm 2 mps 652 mmHg 35%
    13:00 +30°C° 0 mm 3 mps 652 mmHg 33%
    14:00 +31°C° 0 mm 3 mps 651 mmHg 30%
    15:00 +31°C° 0.2 mm 3 mps 651 mmHg 33%
    16:00 +30°C° 0.2 mm 3 mps 650 mmHg 36%
    17:00 +30°C° 0.2 mm 3 mps 650 mmHg 38%
    18:00 +28°C° 0.2 mm 2 mps 650 mmHg 46%
    19:00 +26°C° 0.2 mm 2 mps 650 mmHg 55%
    20:00 +24°C° 0.2 mm 1 mps 650 mmHg 63%
    21:00 +23°C° 0.2 mm 1 mps 650 mmHg 65%
    22:00 +23°C° 0.2 mm 1 mps 650 mmHg 68%
    23:00 +22°C° 0.2 mm 1 mps 650 mmHg 70%

    Tomorrow, 22 September, Saturday

    Time Temperature Precipitation Wind Pressure Humidity
    00:00 +22°C° 0.1 mm 1 mps 649 mmHg 70%
    01:00 +22°C° 0.1 mm 1 mps 649 mmHg 70%
    02:00 +22°C° 0.1 mm 1 mps 649 mmHg 69%
    03:00 +21°C° 0 mm 1 mps 648 mmHg 66%
    04:00 +21°C° 0 mm 1 mps 648 mmHg 63%
    05:00 +20°C° 0 mm 2 mps 648 mmHg 60%
    06:00 +23°C° 0 mm 1 mps 649 mmHg 55%
    07:00 +24°C° 0 mm 1 mps 649 mmHg 49%
    08:00 +26°C° 0 mm 1 mps 650 mmHg 43%
    09:00 +28°C° 0 mm 2 mps 650 mmHg 38%
    10:00 +30°C° 0 mm 2 mps 651 mmHg 33%
    11:00 +32°C° 0 mm 2 mps 651 mmHg 27%
    12:00 +34°C° 0 mm 3 mps 650 mmHg 26%
    13:00 +35°C° 0 mm 3 mps 650 mmHg 24%
    14:00 +36°C° 0 mm 3 mps 649 mmHg 22%
    15:00 +35°C° 0.2 mm 3 mps 649 mmHg 25%
    16:00 +35°C° 0.2 mm 3 mps 648 mmHg 27%
    17:00 +34°C° 0.2 mm 3 mps 648 mmHg 29%
    18:00 +31°C° 0.1 mm 2 mps 648 mmHg 36%
    19:00 +29°C° 0.1 mm 1 mps 648 mmHg 43%
    20:00 +27°C° 0.1 mm 1 mps 648 mmHg 50%
    21:00 +26°C° 0.2 mm 1 mps 648 mmHg 51%
    22:00 +25°C° 0.2 mm 1 mps 648 mmHg 53%
    23:00 +25°C° 0.2 mm 1 mps 648 mmHg 54%

    Day after tomorrow, 23 September, Sunday

    Time Temperature Precipitation Wind Pressure Humidity
    00:00 +25°C° 0 mm 1 mps 648 mmHg 53%
    01:00 +24°C° 0 mm 2 mps 648 mmHg 51%
    02:00 +24°C° 0 mm 2 mps 647 mmHg 50%
    03:00 +24°C° 0 mm 2 mps 647 mmHg 46%
    04:00 +23°C° 0 mm 2 mps 647 mmHg 43%
    05:00 +23°C° 0 mm 2 mps 647 mmHg 39%
    06:00 +25°C° 0 mm 2 mps 648 mmHg 34%
    07:00 +27°C° 0 mm 1 mps 649 mmHg 28%
    08:00 +29°C° 0 mm 1 mps 650 mmHg 23%
    09:00 +31°C° 0 mm 1 mps 651 mmHg 20%
    10:00 +34°C° 0 mm 2 mps 651 mmHg 17%
    11:00 +36°C° 0 mm 2 mps 652 mmHg 14%
    12:00 +37°C° 0 mm 3 mps 651 mmHg 15%
    13:00 +37°C° 0 mm 3 mps 650 mmHg 15%
    14:00 +38°C° 0 mm 3 mps 650 mmHg 15%
    15:00 +37°C° 0 mm 3 mps 649 mmHg 18%
    16:00 +36°C° 0 mm 3 mps 649 mmHg 21%
    17:00 +35°C° 0 mm 4 mps 649 mmHg 24%
    18:00 +33°C° 0.8 mm 3 mps 649 mmHg 33%
    19:00 +29°C° 0.8 mm 2 mps 649 mmHg 41%
    20:00 +27°C° 0.8 mm 1 mps 649 mmHg 50%
    21:00 +26°C° 0.6 mm 1 mps 650 mmHg 53%
    22:00 +25°C° 0.6 mm 1 mps 650 mmHg 56%
    23:00 +25°C° 0.6 mm 1 mps 651 mmHg 59%

    24 September, Monday

    Time Temperature Precipitation Wind Pressure Humidity
    00:00 +24°C° 1.1 mm 1 mps 650 mmHg 62%
    01:00 +23°C° 1.1 mm 1 mps 650 mmHg 65%
    02:00 +23°C° 1.1 mm 1 mps 650 mmHg 67%
    03:00 +22°C° 0.5 mm 1 mps 650 mmHg 70%
    04:00 +22°C° 0.5 mm 1 mps 650 mmHg 72%
    05:00 +22°C° 0.5 mm 1 mps 650 mmHg 74%
    06:00 +22°C° 0.2 mm 1 mps 650 mmHg 74%
    07:00 +21°C° 0.2 mm 2 mps 651 mmHg 74%
    08:00 +21°C° 0.2 mm 2 mps 652 mmHg 74%
    09:00 +23°C° 0.1 mm 2 mps 652 mmHg 72%
    10:00 +22°C° 0.1 mm 3 mps 652 mmHg 70%
    11:00 +24°C° 0.1 mm 3 mps 652 mmHg 68%
    12:00 +24°C° 0.1 mm 3 mps 651 mmHg 67%
    13:00 +24°C° 0.1 mm 3 mps 650 mmHg 66%
    14:00 +24°C° 0.1 mm 3 mps 650 mmHg 66%
    15:00 +24°C° 0.4 mm 3 mps 649 mmHg 67%
    16:00 +23°C° 0.4 mm 2 mps 649 mmHg 69%
    17:00 +23°C° 0.4 mm 2 mps 649 mmHg 71%
    18:00 +21°C° 0.4 mm 2 mps 649 mmHg 74%
    19:00 +20°C° 0.4 mm 2 mps 650 mmHg 76%
    20:00 +21°C° 0.4 mm 1 mps 650 mmHg 79%
    21:00 +21°C° 0 mm 1 mps 650 mmHg 79%
    22:00 +20°C° 0 mm 1 mps 650 mmHg 80%
    23:00 +20°C° 0 mm 1 mps 650 mmHg 80%

    25 September, Tuesday

    Time Temperature Precipitation Wind Pressure Humidity
    00:00 +20°C° 0 mm 1 mps 649 mmHg 80%
    01:00 +19°C° 0 mm 1 mps 649 mmHg 80%
    02:00 +19°C° 0 mm 1 mps 649 mmHg 81%
    03:00 +19°C° 0 mm 1 mps 649 mmHg 78%
    04:00 +18°C° 0 mm 1 mps 648 mmHg 76%
    05:00 +18°C° 0 mm 1 mps 648 mmHg 74%
    06:00 +20°C° 0 mm 1 mps 649 mmHg 67%
    07:00 +21°C° 0 mm 1 mps 650 mmHg 60%
    08:00 +22°C° 0 mm 1 mps 651 mmHg 53%
    09:00 +24°C° 0 mm 2 mps 651 mmHg 49%
    10:00 +25°C° 0 mm 2 mps 651 mmHg 45%
    11:00 +27°C° 0 mm 2 mps 651 mmHg 42%
    12:00 +28°C° 0.1 mm 2 mps 650 mmHg 41%
    13:00 +28°C° 0.1 mm 3 mps 650 mmHg 39%
    14:00 +29°C° 0.1 mm 3 mps 649 mmHg 38%
    15:00 +28°C° 0.6 mm 3 mps 649 mmHg 40%
    16:00 +28°C° 0.6 mm 3 mps 648 mmHg 42%
    17:00 +27°C° 0.6 mm 3 mps 648 mmHg 44%
    18:00 +25°C° 0.5 mm 2 mps 648 mmHg 52%
    19:00 +24°C° 0.5 mm 1 mps 648 mmHg 60%
    20:00 +22°C° 0.5 mm 1 mps 649 mmHg 68%
    21:00 +21°C° 0.1 mm 1 mps 649 mmHg 68%
    22:00 +21°C° 0.1 mm 1 mps 649 mmHg 69%
    23:00 +21°C° 0.1 mm 1 mps 649 mmHg 70%

    26 September, Wednesday

    Time Temperature Precipitation Wind Pressure Humidity
    00:00 +20°C° 0 mm 1 mps 649 mmHg 69%
    01:00 +20°C° 0 mm 1 mps 648 mmHg 68%
    02:00 +19°C° 0 mm 1 mps 648 mmHg 67%
    03:00 +19°C° 0 mm 1 mps 648 mmHg 64%
    04:00 +19°C° 0 mm 1 mps 648 mmHg 62%
    05:00 +19°C° 0 mm 1 mps 648 mmHg 59%
    06:00 +20°C° 0 mm 1 mps 648 mmHg 55%
    07:00 +22°C° 0 mm 1 mps 649 mmHg 51%
    08:00 +23°C° 0 mm 1 mps 650 mmHg 46%
    09:00 +25°C° 0 mm 2 mps 650 mmHg 43%
    10:00 +26°C° 0 mm 2 mps 650 mmHg 39%
    11:00 +28°C° 0 mm 2 mps 650 mmHg 36%
    12:00 +28°C° 0 mm 3 mps 649 mmHg 35%
    13:00 +29°C° 0 mm 3 mps 649 mmHg 34%
    14:00 +30°C° 0 mm 3 mps 648 mmHg 33%
    15:00 +29°C° 0 mm 3 mps 648 mmHg 36%
    16:00 +28°C° 0 mm 3 mps 647 mmHg 39%
    17:00 +28°C° 0 mm 4 mps 647 mmHg 42%
    18:00 +26°C° 0.2 mm 3 mps 647 mmHg 50%
    19:00 +25°C° 0.2 mm 2 mps 647 mmHg 57%
    20:00 +23°C° 0.2 mm 1 mps 648 mmHg 65%
    21:00 +23°C° 0 mm 1 mps 648 mmHg 67%
    22:00 +22°C° 0 mm 1 mps 648 mmHg 68%
    23:00 +22°C° 0 mm 1 mps 648 mmHg 70%
    Show more